AJB1170 SAZY-SAZS

Flight info

Callsign AJB1170
Flight time 0h 38m
Altitude 19000
Route ALGIL1L ALGIL
Aircraft AT46/M-SDFGIRY/S

Departure

Time 2026-05-08 18:05
Airport Aviador C. Campos Airport (SAZY)

Arrival

Time 2026-05-08 18:43
Airport Teniente Luis Candelaria International Airport (SAZS)
Time Latitude Longitude Altitude Speed Heading
2026-05-08 17:33 -40.08086 -71.14184 2594 ft 0 kts 299°
2026-05-08 17:58 -40.08079 -71.14197 2590 ft 2 kts 314°
2026-05-08 17:59 -40.08069 -71.14206 2593 ft 2 kts 333°
2026-05-08 17:59 -40.08034 -71.14205 2592 ft 8 kts 25°
2026-05-08 17:59 -40.07988 -71.14169 2594 ft 8 kts 34°
2026-05-08 17:59 -40.07946 -71.14131 2594 ft 8 kts 33°
2026-05-08 18:00 -40.07874 -71.14072 2594 ft 15 kts 31°
2026-05-08 18:00 -40.07711 -71.13931 2591 ft 11 kts 33°
2026-05-08 18:00 -40.07651 -71.13878 2595 ft 10 kts 35°
2026-05-08 18:01 -40.07598 -71.13832 2589 ft 9 kts 34°
2026-05-08 18:01 -40.07543 -71.13766 2591 ft 13 kts 55°
2026-05-08 18:01 -40.07499 -71.13641 2595 ft 17 kts 65°
2026-05-08 18:01 -40.07452 -71.13488 2588 ft 19 kts 68°
2026-05-08 18:02 -40.07400 -71.13315 2596 ft 22 kts 68°
2026-05-08 18:02 -40.07362 -71.13191 2593 ft 22 kts 68°
2026-05-08 18:02 -40.07279 -71.12921 2590 ft 26 kts 69°
2026-05-08 18:02 -40.07214 -71.12700 2588 ft 27 kts 69°
2026-05-08 18:03 -40.07152 -71.12497 2589 ft 18 kts 69°
2026-05-08 18:03 -40.07143 -71.12394 2583 ft 4 kts 68°
2026-05-08 18:03 -40.07139 -71.12392 2584 ft 1 kts
2026-05-08 18:03 -40.07128 -71.12409 2591 ft 3 kts 287°
2026-05-08 18:04 -40.07131 -71.12433 2592 ft 0 kts 248°
2026-05-08 18:04 -40.07155 -71.12516 2590 ft 35 kts 248°
2026-05-08 18:04 -40.07314 -71.13038 2593 ft 91 kts 250°
2026-05-08 18:04 -40.07627 -71.14043 2640 ft 141 kts 249°
2026-05-08 18:05 -40.08025 -71.15272 3159 ft 150 kts 250°
2026-05-08 18:05 -40.08424 -71.16595 3708 ft 162 kts 253°
2026-05-08 18:05 -40.08737 -71.18008 4277 ft 161 kts 254°
2026-05-08 18:05 -40.08965 -71.19444 4799 ft 161 kts 256°
2026-05-08 18:06 -40.09151 -71.20889 5315 ft 162 kts 256°
2026-05-08 18:06 -40.09271 -71.22363 5819 ft 165 kts 260°
2026-05-08 18:06 -40.09304 -71.23904 6178 ft 180 kts 267°
2026-05-08 18:06 -40.09192 -71.25540 6664 ft 185 kts 271°
2026-05-08 18:07 -40.08891 -71.27215 7176 ft 192 kts 279°
2026-05-08 18:07 -40.08424 -71.28881 7651 ft 198 kts 289°
2026-05-08 18:07 -40.07768 -71.30486 8106 ft 203 kts 299°
2026-05-08 18:07 -40.06888 -71.31960 8566 ft 208 kts 313°
2026-05-08 18:08 -40.05770 -71.33180 8997 ft 211 kts 329°
2026-05-08 18:08 -40.04474 -71.34066 9445 ft 211 kts 343°
2026-05-08 18:08 -40.03061 -71.34577 9935 ft 209 kts 358°
2026-05-08 18:08 -40.01624 -71.34691 10391 ft 205 kts 12°
2026-05-08 18:09 -40.00250 -71.34400 10818 ft 200 kts 25°
2026-05-08 18:09 -39.98970 -71.33746 11262 ft 195 kts 37°
2026-05-08 18:09 -39.97838 -71.32795 11692 ft 191 kts 49°
2026-05-08 18:09 -39.96891 -71.31607 12099 ft 187 kts 60°
2026-05-08 18:10 -39.96158 -71.30252 12555 ft 184 kts 69°
2026-05-08 18:10 -39.95633 -71.28755 13004 ft 180 kts 80°
2026-05-08 18:10 -39.95301 -71.27188 13411 ft 178 kts 86°
2026-05-08 18:10 -39.95141 -71.25598 13807 ft 176 kts 95°
2026-05-08 18:11 -39.95119 -71.24002 14156 ft 176 kts 100°
2026-05-08 18:11 -39.95183 -71.22926 14370 ft 176 kts 104°
2026-05-08 18:11 -39.95352 -71.21373 14687 ft 175 kts 110°
2026-05-08 18:11 -39.95651 -71.19844 15007 ft 173 kts 116°
2026-05-08 18:12 -39.96047 -71.18375 15327 ft 170 kts 123°
2026-05-08 18:12 -39.96566 -71.16991 15656 ft 169 kts 128°
2026-05-08 18:12 -39.97176 -71.15704 15909 ft 167 kts 134°
2026-05-08 18:12 -39.97922 -71.14470 15941 ft 179 kts 139°
2026-05-08 18:13 -39.98847 -71.13323 16079 ft 186 kts 145°
2026-05-08 18:13 -39.99862 -71.12287 16341 ft 184 kts 150°
2026-05-08 18:13 -40.00941 -71.11401 16621 ft 182 kts 155°
2026-05-08 18:13 -40.02057 -71.10689 16914 ft 180 kts 161°
2026-05-08 18:14 -40.03224 -71.10149 17215 ft 177 kts 166°
2026-05-08 18:14 -40.04421 -71.09796 17470 ft 176 kts 172°
2026-05-08 18:14 -40.05638 -71.09612 17755 ft 175 kts 177°
2026-05-08 18:14 -40.06854 -71.09622 18033 ft 174 kts 181°
2026-05-08 18:15 -40.08042 -71.09709 18271 ft 173 kts 182°
2026-05-08 18:15 -40.09242 -71.09838 18493 ft 172 kts 183°
2026-05-08 18:15 -40.10435 -71.09959 18659 ft 172 kts 183°
2026-05-08 18:15 -40.11628 -71.10073 18803 ft 171 kts 183°
2026-05-08 18:16 -40.12814 -71.10192 18993 ft 172 kts 183°
2026-05-08 18:16 -40.14018 -71.10300 19076 ft 176 kts 183°
2026-05-08 18:16 -40.15262 -71.10406 19123 ft 181 kts 182°
2026-05-08 18:16 -40.16546 -71.10510 19139 ft 187 kts 182°
2026-05-08 18:17 -40.17862 -71.10619 19160 ft 192 kts 183°
2026-05-08 18:17 -40.19207 -71.10737 19167 ft 195 kts 183°
2026-05-08 18:17 -40.20581 -71.10859 19168 ft 199 kts 182°
2026-05-08 18:17 -40.21973 -71.10974 19170 ft 202 kts 182°
2026-05-08 18:18 -40.23386 -71.11088 19174 ft 204 kts 182°
2026-05-08 18:18 -40.24789 -71.11204 19173 ft 206 kts 182°
2026-05-08 18:18 -40.26227 -71.11328 19180 ft 207 kts 183°
2026-05-08 18:18 -40.27679 -71.11447 19175 ft 211 kts 182°
2026-05-08 18:19 -40.29148 -71.11576 19183 ft 211 kts 182°
2026-05-08 18:19 -40.30608 -71.11700 19202 ft 213 kts 182°
2026-05-08 18:19 -40.32098 -71.11823 19188 ft 214 kts 182°
2026-05-08 18:19 -40.33596 -71.11941 19181 ft 215 kts 182°
2026-05-08 18:20 -40.35075 -71.12058 19182 ft 214 kts 182°
2026-05-08 18:20 -40.36564 -71.12183 19187 ft 214 kts 182°
2026-05-08 18:20 -40.38060 -71.12308 19227 ft 215 kts 182°
2026-05-08 18:20 -40.39564 -71.12437 19206 ft 217 kts 182°
2026-05-08 18:21 -40.41075 -71.12570 19234 ft 218 kts 182°
2026-05-08 18:21 -40.42596 -71.12701 19213 ft 219 kts 182°
2026-05-08 18:21 -40.44100 -71.12827 19208 ft 219 kts 182°
2026-05-08 18:21 -40.45626 -71.12956 19213 ft 219 kts 182°
2026-05-08 18:22 -40.47151 -71.13085 19217 ft 220 kts 182°
2026-05-08 18:22 -40.48685 -71.13217 19203 ft 221 kts 182°
2026-05-08 18:22 -40.50218 -71.13349 19209 ft 220 kts 182°
2026-05-08 18:22 -40.51742 -71.13479 19203 ft 219 kts 182°
2026-05-08 18:23 -40.53251 -71.13609 19208 ft 218 kts 182°
2026-05-08 18:23 -40.54770 -71.13742 19209 ft 219 kts 182°
2026-05-08 18:23 -40.56294 -71.13879 19209 ft 220 kts 182°
2026-05-08 18:23 -40.57827 -71.14004 19213 ft 221 kts 182°
2026-05-08 18:24 -40.59363 -71.14133 19206 ft 221 kts 182°
2026-05-08 18:24 -40.60908 -71.14263 19214 ft 222 kts 182°
2026-05-08 18:24 -40.62451 -71.14396 19213 ft 223 kts 182°
2026-05-08 18:24 -40.64006 -71.14530 19201 ft 223 kts 182°
2026-05-08 18:25 -40.65558 -71.14664 19208 ft 224 kts 182°
2026-05-08 18:25 -40.67092 -71.14796 19209 ft 224 kts 182°
2026-05-08 18:25 -40.68650 -71.14929 19210 ft 224 kts 182°
2026-05-08 18:25 -40.70205 -71.15064 19208 ft 224 kts 182°
2026-05-08 18:26 -40.71767 -71.15199 19195 ft 224 kts 182°
2026-05-08 18:26 -40.73335 -71.15333 19216 ft 225 kts 182°
2026-05-08 18:26 -40.74882 -71.15467 19200 ft 226 kts 182°
2026-05-08 18:26 -40.76450 -71.15602 19200 ft 225 kts 182°
2026-05-08 18:27 -40.78014 -71.15738 19214 ft 224 kts 182°
2026-05-08 18:27 -40.79049 -71.15829 19228 ft 225 kts 182°
2026-05-08 18:27 -40.81131 -71.16009 19203 ft 226 kts 182°
2026-05-08 18:27 -40.82699 -71.16144 19228 ft 226 kts 182°
2026-05-08 18:28 -40.84273 -71.16282 19217 ft 226 kts 182°
2026-05-08 18:28 -40.85841 -71.16417 19219 ft 227 kts 182°
2026-05-08 18:28 -40.87415 -71.16554 19201 ft 226 kts 182°
2026-05-08 18:28 -40.89011 -71.16699 18879 ft 232 kts 182°
2026-05-08 18:29 -40.90626 -71.16865 18517 ft 233 kts 182°
2026-05-08 18:29 -40.92229 -71.17036 18137 ft 232 kts 182°
2026-05-08 18:29 -40.93833 -71.17188 17737 ft 229 kts 181°
2026-05-08 18:29 -40.95412 -71.17327 17354 ft 226 kts 181°
2026-05-08 18:30 -40.96972 -71.17463 16969 ft 224 kts 181°
2026-05-08 18:30 -40.98526 -71.17599 16618 ft 222 kts 181°
2026-05-08 18:30 -41.00055 -71.17732 16249 ft 218 kts 181°
2026-05-08 18:30 -41.01563 -71.17864 15904 ft 216 kts 180°
2026-05-08 18:31 -41.03057 -71.17995 15546 ft 214 kts 180°
2026-05-08 18:31 -41.04518 -71.18120 15232 ft 212 kts 180°
2026-05-08 18:31 -41.05983 -71.18250 14906 ft 206 kts 180°
2026-05-08 18:31 -41.07354 -71.18371 14598 ft 191 kts 179°
2026-05-08 18:32 -41.08676 -71.18483 14313 ft 191 kts 179°
2026-05-08 18:32 -41.10013 -71.18597 14025 ft 194 kts 179°
2026-05-08 18:32 -41.11367 -71.18716 13698 ft 196 kts 180°
2026-05-08 18:32 -41.12738 -71.18841 13372 ft 198 kts 180°
2026-05-08 18:33 -41.14045 -71.19455 12975 ft 212 kts 213°
2026-05-08 18:33 -41.14825 -71.21204 12550 ft 232 kts 251°
2026-05-08 18:33 -41.14686 -71.23310 12133 ft 237 kts 288°
2026-05-08 18:33 -41.13676 -71.25002 11715 ft 236 kts 326°
2026-05-08 18:34 -41.12209 -71.25839 11298 ft 226 kts 344°
2026-05-08 18:34 -41.10726 -71.26528 10894 ft 226 kts 342°
2026-05-08 18:34 -41.09274 -71.27319 10498 ft 225 kts 339°
2026-05-08 18:34 -41.07866 -71.28248 10103 ft 226 kts 331°
2026-05-08 18:35 -41.06551 -71.29387 9672 ft 225 kts 325°
2026-05-08 18:35 -41.05315 -71.30661 9249 ft 224 kts 318°
2026-05-08 18:35 -41.04205 -71.32074 8830 ft 223 kts 312°
2026-05-08 18:35 -41.03193 -71.33619 8401 ft 221 kts 307°
2026-05-08 18:36 -41.02253 -71.35219 7974 ft 219 kts 305°
2026-05-08 18:36 -41.01403 -71.36851 7577 ft 209 kts 288°
2026-05-08 18:36 -41.01307 -71.38669 7173 ft 193 kts 244°
2026-05-08 18:36 -41.02054 -71.39975 6780 ft 174 kts 210°
2026-05-08 18:37 -41.03058 -71.40849 6473 ft 169 kts 204°
2026-05-08 18:37 -41.04079 -71.41553 6303 ft 164 kts 200°
2026-05-08 18:37 -41.05128 -71.41921 6251 ft 151 kts 166°
2026-05-08 18:37 -41.05925 -71.41132 6229 ft 146 kts 129°
2026-05-08 18:38 -41.06527 -71.40008 6210 ft 153 kts 126°
2026-05-08 18:38 -41.07080 -71.38781 6213 ft 155 kts 122°
2026-05-08 18:38 -41.07579 -71.37498 6068 ft 159 kts 119°
2026-05-08 18:38 -41.08056 -71.36144 5846 ft 164 kts 117°
2026-05-08 18:39 -41.08527 -71.34755 5617 ft 166 kts 117°
2026-05-08 18:39 -41.08979 -71.33422 5385 ft 156 kts 118°
2026-05-08 18:39 -41.09421 -71.32116 5163 ft 154 kts 118°
2026-05-08 18:39 -41.09860 -71.30822 4948 ft 152 kts 118°
2026-05-08 18:40 -41.10280 -71.29588 4736 ft 142 kts 118°
2026-05-08 18:40 -41.10679 -71.28416 4547 ft 138 kts 118°
2026-05-08 18:40 -41.11074 -71.27263 4342 ft 136 kts 118°
2026-05-08 18:40 -41.11466 -71.26134 4143 ft 133 kts 118°
2026-05-08 18:41 -41.11846 -71.25062 3974 ft 129 kts 118°
2026-05-08 18:41 -41.12233 -71.23982 3787 ft 129 kts 117°
2026-05-08 18:41 -41.12608 -71.22906 3600 ft 128 kts 120°
2026-05-08 18:41 -41.12978 -71.21859 3467 ft 121 kts 119°
2026-05-08 18:42 -41.13317 -71.20885 3359 ft 113 kts 119°
2026-05-08 18:42 -41.13643 -71.19944 3228 ft 112 kts 119°
2026-05-08 18:42 -41.13968 -71.19018 3082 ft 111 kts 121°
2026-05-08 18:42 -41.14290 -71.18107 2932 ft 106 kts 120°
2026-05-08 18:43 -41.14593 -71.17253 2803 ft 101 kts 119°
2026-05-08 18:43 -41.14868 -71.16482 2750 ft 69 kts 120°
2026-05-08 18:43 -41.14969 -71.16188 2751 ft 26 kts 111°
2026-05-08 18:43 -41.15029 -71.16010 2751 ft 17 kts 114°
2026-05-08 18:44 -41.15073 -71.15883 2749 ft 13 kts 114°
2026-05-08 18:44 -41.15105 -71.15791 2748 ft 8 kts 115°
2026-05-08 18:44 -41.15131 -71.15716 2748 ft 12 kts 115°
2026-05-08 18:44 -41.15147 -71.15608 2747 ft 10 kts 55°
2026-05-08 18:45 -41.15060 -71.15590 2746 ft 17 kts 360°
2026-05-08 18:45 -41.14977 -71.15694 2747 ft 19 kts 295°
2026-05-08 18:45 -41.14920 -71.15859 2747 ft 20 kts 295°
2026-05-08 18:45 -41.14861 -71.16023 2747 ft 20 kts 295°
2026-05-08 18:46 -41.14819 -71.16145 2748 ft 12 kts 295°
2026-05-08 18:46 -41.14787 -71.16224 2748 ft 7 kts 307°
2026-05-08 18:46 -41.14753 -71.16279 2746 ft 6 kts 324°
2026-05-08 18:46 -41.14714 -71.16271 2746 ft 5 kts 24°
2026-05-08 18:47 -41.14711 -71.16269 2746 ft 0 kts 24°